User: anonymous   Login
Location: Canyam�s
(41.5996°N, 2.4450°E)
Time: 15:22:24
(UTC+00:00)
Language:

STARLINK-1329 - Orbit

View from above orbital plane
View from above orbital plane
View from above satellite
View from above satellite

Ground track
Ground track

The orbit data is extracted from the following two-line orbital elements,

1 45531C 20025A   21137.31995397  .00009254  00000-0  62009-3 0  1371
2 45531  53.0552  75.7659 0001900  78.1639  66.3633 15.06385995    12
Epoch (UTC): 17 May 2021 07:40:44
Eccentricity: 0.0001900
inclination: 53.0552°
perigee height: 546 km
apogee height: 548 km
right ascension of ascending node: 75.7659°
argument of perigee: 78.1639°
revolutions per day: 15.06385995
mean anomaly at epoch: 66.3633°
orbit number at epoch: 1

The dashed part of the orbit path shows where the satellite is in the earth's shadow,  

DLR